Regional Weather Roundup
Issued by NWS Upton, NY

Current Version | Previous Version | Text Only | Print | Product List | Glossary On
Versions: 1 2 3 4 5 6 7 8 9 10 11 12 13 14 15 16 17 18 19 20 21 22 23 24 25 26 27
000
ASUS41 KOKX 271308
RWROKX

REGIONAL WEATHER ROUNDUP
NATIONAL WEATHER SERVICE NEW YORK NY
800 AM EST MON FEB 27 2017

NOTE: "FAIR" INDICATES FEW OR NO CLOUDS BELOW 12,000 FEET WITH NO
SIGNIFICANT WEATHER AND/OR OBSTRUCTIONS TO VISIBILITY.

NYZ071-072-176-178-NJZ106-104-271400-
NEW YORK CITY METRO AREA

CITY           SKY/WX    TMP DP  RH WIND       PRES   REMARKS
Central Park   SUNNY     36  20  52 SW7       30.42R WCI  30
Wall St Helipt NOT AVBL
LaGuardia APRT MOSUNNY   39  21  48 SW12      30.40R WCI  32
Kennedy INTL   MOSUNNY   38  27  64 SW12      30.42R WCI  30
Breezy Point     N/A     36 N/A N/A SW9G16      N/A  WCI  29
Newark/Liberty PTSUNNY   35  21  56 SW8       30.41R WCI  29
Teterboro      SUNNY     36  22  56 S9        30.39R WCI  29
$$

NYZ177-179-078>081-271400-
LONG ISLAND NEW YORK

CITY           SKY/WX    TMP DP  RH WIND       PRES   REMARKS
Jones Beach      N/A     37 N/A N/A SW9G15      N/A  WCI  31
Matinecock PT  NOT AVBL
Farmingdale    SUNNY     37  25  61 SW8       30.42R WCI  31
MacArthur/ISP  MOSUNNY   38  26  62 SW13      30.40R WCI  30
Shirley        SUNNY     38  26  62 SW12      30.42R WCI  30
Westhampton    SUNNY     38  28  67 SW13      30.42R WCI  30
Southampton      N/A     41  32  70 W7        30.38
Bridgehampton  NOT AVBL
East Hampton     N/A     37  26  64 SW5       30.40R WCI  33
Montauk          N/A     40  24  53 W7        30.40R
$$

NYZ052-065-067-271400-
HUDSON VALLEY

CITY           SKY/WX    TMP DP  RH WIND       PRES   REMARKS
White Plains   SUNNY     35  17  47 SW3       30.36R
Newburgh       SUNNY     30  23  74 CALM      30.35R
Montgomery     SUNNY     31  21  66 SW7       30.33R WCI  24
Poughkeepsie   SUNNY     30  23  75 SE3       30.35R
Albany         MOSUNNY   32  19  58 S12       30.28R WCI  23
$$

NJZ001-105-106-008-010-013-015-019>022-104-271400-
NEW JERSEY

CITY           SKY/WX    TMP DP  RH WIND       PRES   REMARKS
Newark/Liberty PTSUNNY   35  21  56 SW8       30.41R WCI  29
Teterboro      SUNNY     36  22  56 S9        30.39R WCI  29
Caldwell       SUNNY     34  19  54 S3        30.40R
Somerville     SUNNY     26  22  84 CALM      30.40R
Linden         NOT AVBL
Sussex         MOSUNNY   31  21  66 SW7       30.36R WCI  24
Andover          N/A     32  18  56 VRB3      30.38R
Trenton        MOSUNNY   31  24  75 SW3       30.41R
Millville      SUNNY     39  34  82 CALM      30.43R
Atlantic City  MOSUNNY   38  29  70 S6        30.44R WCI  33
Wrightstown    MOSUNNY   34  25  68 SW3       30.40R
Toms River     MOSUNNY   34  26  72 SW3       30.44R
Belmar         MOSUNNY   32  22  66 SW6       30.43R WCI  26
$$

PAZ047>061-062-071-271400-
EASTERN PENNSYLVANIA

CITY           SKY/WX    TMP DP  RH WIND       PRES   REMARKS
Philadelphia   PTSUNNY   37  26  64 SW7       30.43R WCI  32
Allentown      MOSUNNY   28  21  75 NW3       30.40R
Scranton       CLOUDY    33  18  53 SW6       30.33R WCI  28
$$

CTZ002-004>006-009-010-012-RIZ004-006-007-MAZ004-011-015-271400-
SOUTHERN NEW ENGLAND
 IN CT

CITY           SKY/WX    TMP DP  RH WIND       PRES   REMARKS
Bradley INTL   MOSUNNY   33  18  53 SW9       30.34R WCI  25
Hartford       SUNNY     34  21  59 S9        30.36R WCI  27
Danbury        SUNNY     29  22  75 CALM      30.37R
Wtrbury/Oxford SUNNY     30  16  55 SW6       30.35R WCI  24
Bridgeport     SUNNY     37  23  56 W6        30.39R WCI  32
Meriden        SUNNY     34  22  61 S7        30.37R WCI  28
New Haven      MOSUNNY   36  25  64 W5        30.39R WCI  32
Chester          N/A     36  23  60 SW8       30.36R WCI  29
Groton         SUNNY     40  25  55 SW13G20   30.38R WCI  32
Wilimantic     SUNNY     29  24  82 CALM      30.36R

 IN RI

CITY           SKY/WX    TMP DP  RH WIND       PRES   REMARKS
Providence     MOSUNNY   36  21  54 SW8       30.36S WCI  30
Block Island   SUNNY     40  26  57 SW12      30.39R WCI  33
Westerly       SUNNY     40  25  55 SW12G21   30.38R WCI  33
 IN MA

CITY           SKY/WX    TMP DP  RH WIND       PRES   REMARKS
Boston         SUNNY     34  19  54 SW21      30.32S WCI  22
Worcester      SUNNY     29  15  56 SW13      30.28R WCI  19
Westfield      SUNNY     29  22  75 S3        30.32R
Provincetown   SUNNY     37  24  59 SW23      30.34F WCI  26
Nantucket      SUNNY     41  27  57 W15       30.38R
$$

ANZ330-335-338-340-345-350-353-355-271400-
COASTAL MARINE OBSERVATIONS


STATION/POSITION TIME  SKY/WX   TEMP    WIND        PRES    VSBY  WAVE
                                AIR SEA DIR/SP/G                  HT/PER
                 (UTC)          (F)     (DEG/KT/KT) (MB)    (MI)  (FT/S)
NY HARB ENTRANCE 1150            38 42  240/ 12/ 14 1028.8          3/ 9
20 S FIRE ISLAND 1150            41 43  240/ 14/ 16 1028.8          2/ 8
GREAT SOUTH BAY  NOT AVBL
23 SSW MONTAUK P 1150            42 44              1028.9          4/ 9
15 E BARNEGAT LI 1230               44                N/A           3/ 9
HUDSON CANYON    1150               47              1030.0          3/ 9
KINGS POINT      1230            37 39              1029.2
EXECUTION ROCKS  NOT AVBL
CENTRAL LI SOUND 1215            38     240/ 12/ 14   N/A           1/ 3
EASTERN LI SOUND NOT AVBL
ROBBINS REEF     1230            35     250/  9/ 12 1029.9
$$


>>>>>>>>>>>>>>>>>>>>>>>>>>>> KEY <<<<<<<<<<<<<<<<<<<<<<<<<<<
>                                                          <
>     SKY/WX - Sky Condition/Present Weather               <
>     TMP    - Temperature in Fahrenheit                   <
>     DP     - Dew Point in Fahrenheit                     <
>     RH     - Relative Humidity in Percent                <
>     WIND   - Direction (from) and Speed in MPH           <
>     PRES   - Mean Sea Level Pressure (inches of Hg)      <
>     WCI    - Wind Chill Index                            <
>     VSB    - VISIBILITY IN MILES                         <
>     HX     - HEAT INDEX                                  <
>     TC     - TEMPERATURE IN CELSIUS                      <
>     VRB    - VARIABLE WIND DIRECTION                     <
>                                                          <
>>>>>>>>>>>>>>>>>>>>>>>>>>>> KEY <<<<<<<<<<<<<<<<<<<<<<<<<<<




USA.gov is the U.S. government's official web portal to all federal, state and local government web resources and services.